1st Responders/1st Detectors/Storm Spotters Weather Summary for Graves County, KY

Forecast Maps


Reg. NEXRAD Animation


National Fire Danger: Day 1 & 2 Map

Current NWS Watch/Warnings

SPC Convective Day 1 Outlook


Day 2 Outlook

(Click images to enlarge|Page will refresh every 5 minutes)
UK Ag. Weather Center Desktop Severe Weather Service[HERE]
Graves County, KY Hazardous Weather Outlook Webcast
(9 AM to 9 PM Mon-Fri)
[Fast]
[Dial-up]


UKAWC 1st Detectors/1st Responders Precision Weather Forecast For GRAVES County, Kentucky
(based on the NWS County Digital Forecast)

ISSUED AT 14:00 UTC ON SUNDAY JUL 22 2018
DAY SUNDAY
CDT 3HR 10A 11A NOON 1P 2P 3P 4P 5P 6P
MAX/MIN -- -- -- -- -- -- -- -- 83°
TEMP 76° 79° 81° 83° 83° 83° 83° 83° 83°
SKY COVER 77% 78% 78% 79% 79% 78% 78% 78% 78%
Clouds
DEW PT 67° 67° 67° 67° 67° 67° 67° 67° 67°
RH 71% 64% 64% 60% 59% 59% 58% 58% 60%
POP 12HR -- -- -- -- -- -- -- -- --
RAIN/SNOW (liq.equ) -- -- -- 0.00in -- -- -- -- --
SNOWFALL -- -- -- 0in -- -- -- -- --
WIND SPEED(MPH) 10 10 10 10 10 13 13 13 10
WIND Gust(MPH) 15 15 15 15 16 16 16 16 15
WIND DIR NW NW NW NW NW NW NW NW N
DEW -- -- -- -- -- -- -- -- --
HeatIndex 76 82 83 86 87 87 87 87 86
Rain Showers -- -- -- Slight Chance Slight Chance Slight Chance Slight Chance Slight Chance Slight Chance
Thunder Storm -- -- -- Slight Chance Slight Chance Slight Chance Slight Chance Slight Chance Slight Chance
WIND CHILL -- -- -- -- -- -- -- -- --
SPRAY COND
DRY COND
LIVESTOCK HEATSTRESS 73.26 75.00 76.60 77.68 77.54 77.54 77.41 77.41 77.68



DAY MONDAY TUESDAY WEDNESDAY THURSDAY FRIDAY SATURDAY
CDT 6HR 7P 8P 9P 10P 11P MIDN 1A 2A 3A 4A 5A 6A 7A 8A 9A 10A 11A NOON 1P 2P 3P 4P 5P 6P 7P 8P 9P 10P 1A 4A 7A 10A 1P 4P 7P 1A 7A 1P 7P 1A 7A 1P 7P 1A 7A 1P 7P 1A 7A 1P 7P
MAX/MIN -- -- -- -- -- -- -- -- -- -- -- -- 67° -- -- -- -- -- -- -- -- -- -- 85° -- -- -- -- -- -- 67° -- -- 88° -- -- 67° 88° -- -- 68° 90° -- -- 70° 88° -- -- 68° 86° --
TEMP 81° 79° 76° 72° 72° 70° 70° 70° 70° 70° 68° 67° 67° 70° 72° 74° 77° 81° 83° 83° 85° 85° 85° 83° 81° 79° 76° 74° 70° 67° 70° 79° 85° 88° 83° 70° 68° 86° 85° 72° 70° 88° 85° 72° 72° 88° 83° 72° 70° 85° 81°
SKY COVER 78% 75% 73% 70% 69% 68% 67% 65% 62% 60% 64% 68% 72% 70% 65% 63% 56% 40% 33% 33% 33% 33% 33% 32% 32% 30% 25% 23% 19% 15% 19% 24% 38% 31% 28% 21% 11% 15% 14% 11% 10% 17% 37% 47% 50% 46% 55% 56% 62% 66% 69%
Clouds
DEW PT 67° 67° 67° 67° 67° 67° 67° 67° 67° 67° 67° 67° 67° 67° 67° 67° 67° 65° 65° 65° 65° 65° 65° 65° 65° 65° 65° 65° 65° 65° 65° 67° 67° 68° 68° 67° 65° 67° 68° 67° 65° 67° 67° 67° 65° 67° 67° 67° 65° 67° 68°
RH 62% 68% 76% 84% 87% 89% 90% 90% 90% 89% 93% 96% 96% 90% 81% 76% 68% 60% 56% 54% 52% 53% 53% 55% 58% 64% 71% 76% 84% 90% 84% 68% 54% 54% 61% 93% 90% 53% 59% 84% 84% 49% 57% 84% 81% 51% 57% 81% 84% 55% 67%
POP 12HR 21% -- -- -- -- -- -- -- -- -- -- -- 11% -- -- -- -- -- -- -- -- -- -- -- 7% -- -- -- -- -- 1% -- -- -- 5% -- 3% -- 3% -- 2% -- 4% -- 9% -- 20% -- 21% -- 39%
RAIN/SNOW (liq.equ) 0.00in -- -- -- -- -- 0.00in -- -- -- -- -- 0.00in -- -- -- -- -- 0.00in -- -- -- -- -- 0.00in -- -- -- 0.00in -- 0.00in -- 0.00in -- 0.00in -- -- -- -- -- -- -- -- -- -- -- -- -- -- -- --
SNOWFALL 0in -- -- -- -- -- 0in -- -- -- -- -- 0in -- -- -- -- -- 0in -- -- -- -- -- 0in -- -- -- 0in -- 0in -- 0in -- 0in -- -- -- -- -- -- -- -- -- -- -- -- -- -- -- --
WIND SPEED(MPH) 9 8 7 7 6 6 6 6 6 6 6 7 7 7 8 8 8 9 9 9 9 9 9 8 7 7 6 5 5 5 6 7 7 8 7 2 5 7 6 2 2 6 6 2 5 6 5 2 5 5 6
WIND DIR N N N N N N N N N N N N N N N N N N N N N N N N N N N N N N N N N N N N N N N NE N N N NE NE N N NE NE NW N
HeatIndex 85 79 76 72 72 70 70 70 70 70 68 67 67 70 72 74 77 83 85 86 87 87 87 86 84 79 76 74 70 67 70 79 89 92 87 70 68 90 88 72 70 91 88 72 72 91 86 72 70 89 84
Rain Showers -- -- -- -- -- -- -- -- -- -- -- -- -- -- -- -- -- -- -- -- -- -- -- -- -- -- -- -- -- -- -- -- -- -- -- -- -- -- -- -- -- -- -- -- Slight Chance -- -- Slight Chance Chance Chance --
Thunder Storm -- -- -- -- -- -- -- -- -- -- -- -- -- -- -- -- -- -- -- -- -- -- -- -- -- -- -- -- -- -- -- -- -- -- -- -- -- -- -- -- -- -- -- -- Slight Chance -- -- Slight Chance Chance Chance --
WIND CHILL -- -- -- -- -- -- -- -- -- -- -- -- -- -- -- -- -- -- -- -- -- -- -- -- -- -- -- -- -- -- -- -- -- -- -- -- -- -- -- -- -- -- -- -- -- -- -- -- -- -- --
SPRAY COND
DRY COND
LIVESTOCK HEATSTRESS 76.36 75.44 73.73 70.84 71.06 69.32 69.38 69.38 69.38 69.32 67.65 66.82 66.82 69.38 70.62 71.99 73.80 76.12 77.14 76.88 78.08 78.23 78.23 77.01 75.87 75.00 73.26 71.99 69.01 66.55 69.01 75.44 78.37 80.61 77.81 69.57 67.49 78.97 79.09 70.84 69.01 79.81 78.80 70.84 70.62 80.13 77.28 70.62 69.01 78.52 76.97

Click on individual weather variable above in left-hand column (ie., TEMP, RH, QPF 12HR) to view state forecast maps






NWS 48 Hr. Forecast Maps,

Regional Hourly Observations For GRAVES County, Kentucky
Issued at 1000 AM EDT SUN JUL 22 2018
WESTERN AND SOUTH CENTRAL KENTUCKY
  
CITY           SKY/WX    TMP DP  RH WIND       PRES   REMARKS
PADUCAH        CLOUDY    74  65  73 NW8       29.84S                  
HENDERSON      CLOUDY    71  67  87 NW13      29.81S                  
OWENSBORO      PTSUNNY   71  68  90 NW10      29.79S                  
HOPKINSVILLE   CLOUDY    71  66  84 NW8G20    29.82S                  
BOWLING GREEN  CLOUDY    73  68  84 W9        29.80R                  
GLASGOW        CLOUDY    71  65  81 W6        29.79R                  


Current NOWCAST not available:
Nowcasts are not issued routinely during fair weather. Only when
precipitation or other significant weather is occuring in this county will these
forecasts be issued. Currently, there is no short term forecast in effect.


Fire Weather Forecast For GRAVES County, KY
Provided by the National Weather Service:

Issued at: Sun Jul 22 10:05:01 EDT 2018

Cloud Cover           PCldy        PCldy        PCldy        
Precip Type           tstms        NONE         NONE         
Chance Precip (%)     30           0            0            
High Temperature(F)   81-85                     81-85        
Minimum RH(%)         56-61                     51-56        
Low Temperature(F)                 65-69                     
Maximum RH(%)                      95-100                    
Temp (24h Trend)      85 (-2)      67 (-1)      85           
RH % (24h Trend)      59 (+10)     99 (+4)      54           
20FTWND-AM(MPH)       NW 7-11 G17               N 6-10       
20FTWND-PM(MPH)       NW 9-13      N 5-9        N 7-11       
Precip Amount         0.01         0.00         0.00         
Precip Duration       1                                      
Precip Begin          1 PM                                   
Precip End            7 PM                                   
1700'Mix Hgt Temp     73                        74           
Mixing Hgt(FT-AGL)    3786                      5082         
Transport Wind (KTS)  SW  5                     N 17         
Transport Wind (M/S)  SW  3                     N  9         
Vent Rate (M/S-M)     3462                      13941        
Dispersion Index      Poor to Fair              Good         
LAL                   2            2            1            
Haines Index          2            2            3            
Stability(DSI)        SLGT UNSTBL  SLGT UNSTBL  SLGT UNSTBL  

Remarks...None.

.Forecast for days 3 through 7...

.MONDAY NIGHT...Mostly clear. Lows in the upper 60s. North winds
5 to 10 mph. 
.TUESDAY...Mostly sunny. Highs in the upper 80s. North winds 5 to
10 mph. 
.TUESDAY NIGHT...Mostly clear. Lows in the upper 60s. North winds
5 to 10 mph. 
.WEDNESDAY...Sunny. Highs in the upper 80s. North winds 5 to
10 mph. 
.WEDNESDAY NIGHT...Mostly clear. Lows in the upper 60s. North
winds around 5 mph. 
.THURSDAY...Sunny. Highs in the lower 90s. North winds around
5 mph. 
.THURSDAY NIGHT...Partly cloudy. Lows around 70. Northeast winds
around 5 mph. 
.FRIDAY...Mostly sunny with a 20 percent chance of showers and
thunderstorms. Highs in the upper 80s. North winds around 5 mph. 
.FRIDAY NIGHT...Mostly cloudy with a 20 percent chance of showers
and thunderstorms. Lows in the upper 60s. Northeast winds around
5 mph. 
.SATURDAY...Partly sunny with a 40 percent chance of showers and
thunderstorms. Highs in the upper 80s. North winds around 5 mph. 

SPC's Fire Weather Web Tool (Excellent!), SPC's Fire Weather Outlooks, NWS Fire Weather WEB, Fire Danger Class Map,
Keetch-Byram Drought Index, ROMAN Web, Haines Index ,
WFAS's 10-hr Dead Fuel Moist., WFAS's 100-hr Dead Fuel Moist., Probablity of Ignition, Visual blackness Map, Palmer Drought Index, HPC's Rainfall Forecast Maps


Hazardous Weather Outlook For GRAVES County, Kentucky
404 AM CDT Sun Jul 22 2018

 DAY ONE  Today and Tonight

The chance of thunderstorms today will be best in our east. Brief
heavy rain and lightning will be the primary hazards.

 DAYS TWO THROUGH SEVEN  Monday through Saturday

Other than very isolated chances, the next best chance of 
thunderstorms returns to the forecast next weekend. At this time,
severe weather is not expected.

 SPOTTER INFORMATION STATEMENT  

Spotter activation will not be needed.

Latest GRAVES County, Kentucky Watches, Warnings and Advisories.
Additional Drought Info.: UKAWC Drought Page, Kentucky Drought Watch


7-Day Forecast For GRAVES County, KY

TODAY
Mostly cloudy. A 20 percent chance of showers and thunderstorms in the afternoon. Highs in the mid 80s. Northwest winds around 10 mph.

TONIGHT
Mostly cloudy. Lows in the upper 60s. North winds 5 to 10 mph.

MONDAY
Mostly cloudy in the morning then becoming mostly sunny. Highs in the mid 80s. North winds around 10 mph.

MONDAY NIGHT
Mostly clear. Lows in the upper 60s. North winds 5 to 10 mph.

TUESDAY
Mostly sunny. Highs in the upper 80s. North winds 5 to 10 mph.

TUESDAY NIGHT
Mostly clear. Lows in the upper 60s.

WEDNESDAY
Mostly sunny. Highs in the upper 80s.

WEDNESDAY NIGHT
Mostly clear. Lows in the upper 60s.

THURSDAY
Mostly sunny. Highs around 90.

THURSDAY NIGHT
Partly cloudy. Lows around 70.

FRIDAY
Partly sunny. A 20 percent chance of showers and thunderstorms in the morning. Highs in the upper 80s.

FRIDAY NIGHT
Partly cloudy. A 20 percent chance of showers and thunderstorms after midnight. Lows in the upper 60s.

SATURDAY
Partly sunny with a 40 percent chance of showers and thunderstorms. Highs in the upper 80s.

Ag Weather Center, Department of Biosystems & Agricultural Engineering, University of Kentucky